User: anonymous   Login
Location: Radford
(37.1320°N, 80.5770°W)
Time: 19:14:47
(UTC-05:00)
Language:

Okean 1-7 - Orbit

View from above orbital plane
View from above orbital plane
View from above satellite
View from above satellite

Ground track
Ground track

The orbit data is extracted from the following two-line orbital elements,

1 23317U 94066A   16336.95099346 +.00000310 +00000-0 +31571-4 0  9990
2 23317 082.5366 303.7663 0019997 004.3652 355.7735 14.87309696196634
Epoch (UTC): 01 December 2016 22:49:25
Eccentricity: 0.0019997
inclination: 82.5366°
perigee height: 592 km
apogee height: 620 km
right ascension of ascending node: 303.7663°
argument of perigee: 4.3652°
revolutions per day: 14.87309696
mean anomaly at epoch: 355.7735°
orbit number at epoch: 19663

The dashed part of the orbit path shows where the satellite is in the earth's shadow,  

DLR